When you browse on this site, cookies collect data to enhance your experience and personalize the content and advertising you see.
Visit our Privacy Policy to learn more. By continuing to use the site, you agree to this use of cookies and data.
  • In Latvia
  • List of Countries
  • For 7 days
  • Water Temperature
  • Weather Map
  • Weather Widgets
  • user-avatar
    Login

    Hourly Weather Plymouth

    Today, 23 January, Thursday

    Time Temperature Precipitation Wind Pressure Humidity
    00:00 +4°C° 0 mm 7 mps 774 mmHg 95%
    01:00 +4°C° 0 mm 7 mps 773 mmHg 95%
    02:00 +3°C° 0 mm 7 mps 772 mmHg 95%
    03:00 +3°C° 0 mm 7 mps 772 mmHg 95%
    04:00 +3°C° 0 mm 6 mps 772 mmHg 95%
    05:00 +4°C° 0 mm 6 mps 772 mmHg 94%
    06:00 +4°C° 0 mm 6 mps 771 mmHg 94%
    07:00 +4°C° 0 mm 6 mps 771 mmHg 94%
    08:00 +4°C° 0 mm 6 mps 771 mmHg 94%
    09:00 +4°C° 0 mm 6 mps 771 mmHg 94%
    10:00 +4°C° 0 mm 6 mps 771 mmHg 92%
    11:00 +5°C° 0 mm 6 mps 771 mmHg 89%
    12:00 +7°C° 0 mm 6 mps 771 mmHg 87%
    13:00 +7°C° 0 mm 6 mps 770 mmHg 87%
    14:00 +7°C° 0 mm 5 mps 770 mmHg 86%
    15:00 +6°C° 0 mm 5 mps 769 mmHg 86%
    16:00 +6°C° 0 mm 5 mps 769 mmHg 88%
    17:00 +5°C° 0 mm 5 mps 769 mmHg 90%
    18:00 +4°C° 0 mm 4 mps 769 mmHg 93%
    19:00 +4°C° 0 mm 4 mps 768 mmHg 92%
    20:00 +4°C° 0 mm 4 mps 768 mmHg 92%
    21:00 +4°C° 0 mm 4 mps 768 mmHg 92%
    22:00 +4°C° 0 mm 4 mps 768 mmHg 91%
    23:00 +4°C° 0 mm 4 mps 768 mmHg 90%

    Tomorrow, 24 January, Friday

    Time Temperature Precipitation Wind Pressure Humidity
    00:00 +5°C° 0 mm 4 mps 768 mmHg 89%
    01:00 +4°C° 0 mm 4 mps 767 mmHg 90%
    02:00 +4°C° 0 mm 4 mps 767 mmHg 91%
    03:00 +4°C° 0 mm 4 mps 766 mmHg 92%
    04:00 +4°C° 0 mm 4 mps 766 mmHg 92%
    05:00 +4°C° 0 mm 4 mps 766 mmHg 92%
    06:00 +4°C° 0 mm 4 mps 765 mmHg 93%
    07:00 +4°C° 0 mm 4 mps 765 mmHg 92%
    08:00 +5°C° 0 mm 4 mps 765 mmHg 92%
    09:00 +5°C° 0 mm 4 mps 765 mmHg 92%
    10:00 +5°C° 0 mm 5 mps 765 mmHg 89%
    11:00 +6°C° 0 mm 5 mps 765 mmHg 86%
    12:00 +7°C° 0 mm 5 mps 765 mmHg 83%
    13:00 +7°C° 0 mm 5 mps 764 mmHg 82%
    14:00 +6°C° 0 mm 5 mps 764 mmHg 81%
    15:00 +6°C° 0 mm 5 mps 763 mmHg 80%
    16:00 +5°C° 0 mm 5 mps 763 mmHg 84%
    17:00 +5°C° 0 mm 5 mps 763 mmHg 87%
    18:00 +3°C° 0 mm 5 mps 763 mmHg 90%
    19:00 +3°C° 0 mm 5 mps 763 mmHg 91%
    20:00 +3°C° 0 mm 5 mps 763 mmHg 92%
    21:00 +5°C° 0 mm 5 mps 763 mmHg 93%
    22:00 +5°C° 0 mm 5 mps 762 mmHg 94%
    23:00 +5°C° 0 mm 5 mps 762 mmHg 95%

    Day after tomorrow, 25 January, Saturday

    Time Temperature Precipitation Wind Pressure Humidity
    00:00 +5°C° 0 mm 5 mps 761 mmHg 96%
    01:00 +6°C° 0 mm 5 mps 761 mmHg 96%
    02:00 +6°C° 0 mm 5 mps 760 mmHg 96%
    03:00 +7°C° 0 mm 6 mps 759 mmHg 96%
    04:00 +7°C° 0 mm 6 mps 759 mmHg 95%
    05:00 +7°C° 0 mm 6 mps 759 mmHg 95%
    06:00 +8°C° 0 mm 6 mps 758 mmHg 95%
    07:00 +8°C° 0.1 mm 6 mps 758 mmHg 94%
    08:00 +8°C° 0.1 mm 6 mps 758 mmHg 93%
    09:00 +8°C° 0.1 mm 7 mps 758 mmHg 92%
    10:00 +8°C° 0.1 mm 6 mps 758 mmHg 90%
    11:00 +9°C° 0.1 mm 6 mps 758 mmHg 88%
    12:00 +9°C° 0.1 mm 6 mps 757 mmHg 86%
    13:00 +9°C° 0.1 mm 6 mps 757 mmHg 86%
    14:00 +9°C° 0.1 mm 5 mps 757 mmHg 87%
    15:00 +9°C° 0.1 mm 5 mps 756 mmHg 87%
    16:00 +8°C° 0.1 mm 5 mps 756 mmHg 89%
    17:00 +7°C° 0.1 mm 5 mps 756 mmHg 92%
    18:00 +6°C° 0.1 mm 5 mps 756 mmHg 94%
    19:00 +6°C° 0.1 mm 5 mps 756 mmHg 93%
    20:00 +6°C° 0.1 mm 5 mps 756 mmHg 91%
    21:00 +6°C° 0.1 mm 5 mps 756 mmHg 89%
    22:00 +5°C° 0 mm 6 mps 756 mmHg 89%
    23:00 +5°C° 0 mm 6 mps 755 mmHg 89%

    26 January, Sunday

    Time Temperature Precipitation Wind Pressure Humidity
    00:00 +5°C° 0 mm 7 mps 755 mmHg 89%
    01:00 +6°C° 0.3 mm 7 mps 755 mmHg 91%
    02:00 +6°C° 0.3 mm 8 mps 754 mmHg 92%
    03:00 +7°C° 0.3 mm 8 mps 754 mmHg 94%
    04:00 +7°C° 0.7 mm 9 mps 753 mmHg 93%
    05:00 +7°C° 0.7 mm 10 mps 753 mmHg 92%
    06:00 +8°C° 0.7 mm 11 mps 752 mmHg 92%
    07:00 +8°C° 1 mm 11 mps 752 mmHg 92%
    08:00 +8°C° 1 mm 10 mps 752 mmHg 92%
    09:00 +8°C° 1 mm 10 mps 753 mmHg 92%
    10:00 +8°C° 0.1 mm 9 mps 753 mmHg 88%
    11:00 +8°C° 0.1 mm 9 mps 753 mmHg 85%
    12:00 +9°C° 0.1 mm 8 mps 753 mmHg 82%
    13:00 +9°C° 0.1 mm 8 mps 753 mmHg 82%
    14:00 +8°C° 0.1 mm 7 mps 753 mmHg 82%
    15:00 +8°C° 0.1 mm 7 mps 753 mmHg 83%
    16:00 +6°C° 0.1 mm 7 mps 754 mmHg 85%
    17:00 +6°C° 0.1 mm 7 mps 754 mmHg 87%
    18:00 +5°C° 0.1 mm 7 mps 754 mmHg 88%
    19:00 +4°C° 0 mm 7 mps 754 mmHg 87%
    20:00 +4°C° 0 mm 7 mps 754 mmHg 85%
    21:00 +4°C° 0 mm 7 mps 754 mmHg 84%
    22:00 +4°C° 0.1 mm 8 mps 754 mmHg 84%
    23:00 +5°C° 0.1 mm 9 mps 754 mmHg 85%

    27 January, Monday

    Time Temperature Precipitation Wind Pressure Humidity
    00:00 +5°C° 0.1 mm 10 mps 754 mmHg 85%
    01:00 +5°C° 0.1 mm 10 mps 754 mmHg 86%
    02:00 +6°C° 0.1 mm 10 mps 753 mmHg 86%
    03:00 +6°C° 0.1 mm 10 mps 753 mmHg 86%
    04:00 +6°C° 0.1 mm 9 mps 753 mmHg 87%
    05:00 +5°C° 0.1 mm 8 mps 753 mmHg 88%
    06:00 +5°C° 0.1 mm 7 mps 752 mmHg 89%
    07:00 +5°C° 0.5 mm 8 mps 752 mmHg 91%
    08:00 +6°C° 0.5 mm 9 mps 751 mmHg 92%
    09:00 +6°C° 0.5 mm 10 mps 751 mmHg 93%
    10:00 +7°C° 1.1 mm 11 mps 749 mmHg 93%
    11:00 +7°C° 1.1 mm 12 mps 748 mmHg 93%
    12:00 +6°C° 1.1 mm 14 mps 746 mmHg 93%
    13:00 +7°C° 1.9 mm 16 mps 744 mmHg 93%
    14:00 +7°C° 1.9 mm 18 mps 741 mmHg 93%
    15:00 +8°C° 1.9 mm 21 mps 738 mmHg 93%
    16:00 +7°C° 1.6 mm 18 mps 738 mmHg 89%
    17:00 +6°C° 1.6 mm 16 mps 738 mmHg 86%
    18:00 +5°C° 1.6 mm 13 mps 739 mmHg 83%
    19:00 +4°C° 0.1 mm 13 mps 740 mmHg 80%
    20:00 +4°C° 0.1 mm 13 mps 741 mmHg 78%
    21:00 +3°C° 0.1 mm 13 mps 743 mmHg 76%
    22:00 +3°C° 0.2 mm 13 mps 744 mmHg 75%
    23:00 +1°C° 0.2 mm 13 mps 745 mmHg 74%

    28 January, Tuesday

    Time Temperature Precipitation Wind Pressure Humidity
    00:00 +1°C° 0.2 mm 13 mps 745 mmHg 74%
    01:00 +1°C° 0.1 mm 13 mps 746 mmHg 75%
    02:00 +1°C° 0.1 mm 13 mps 747 mmHg 77%
    03:00 +1°C° 0.1 mm 13 mps 748 mmHg 78%
    04:00 +1°C° 0.1 mm 13 mps 749 mmHg 77%
    05:00 +1°C° 0.1 mm 13 mps 750 mmHg 77%
    06:00 +2°C° 0.1 mm 12 mps 750 mmHg 76%
    07:00 +2°C° 0.1 mm 12 mps 751 mmHg 76%
    08:00 +3°C° 0.1 mm 12 mps 751 mmHg 76%
    09:00 +3°C° 0.1 mm 12 mps 752 mmHg 77%
    10:00 +3°C° 0.1 mm 12 mps 753 mmHg 75%
    11:00 +4°C° 0.1 mm 11 mps 753 mmHg 73%
    12:00 +4°C° 0.1 mm 11 mps 754 mmHg 71%
    13:00 +4°C° 0.1 mm 11 mps 754 mmHg 72%
    14:00 +4°C° 0.1 mm 11 mps 753 mmHg 74%
    15:00 +4°C° 0.1 mm 11 mps 753 mmHg 75%
    16:00 +4°C° 0.1 mm 11 mps 753 mmHg 76%
    17:00 +4°C° 0.1 mm 11 mps 753 mmHg 77%
    18:00 +4°C° 0.1 mm 11 mps 753 mmHg 78%
    19:00 +4°C° 0.1 mm 12 mps 752 mmHg 78%
    20:00 +4°C° 0.1 mm 13 mps 752 mmHg 78%
    21:00 +5°C° 0.1 mm 13 mps 751 mmHg 78%
    22:00 +5°C° 0.2 mm 13 mps 751 mmHg 80%
    23:00 +5°C° 0.2 mm 14 mps 751 mmHg 82%
    Show more